Overview Statistics Trail Chart Weather Telemetry Raw packets
 

This is the latest recevied weather packets stored in our database for station/object KF6RAL-6. If no packets are shown the sender has not sent any weather packets the latest 10 day(s).

<< 47 48 49 50 51 52 53 >>
Time Temp. Humidity Pressure Rain* Wind** Luminosity Snow
1788191969 20.56° C 62% 1016.4 hPa 0 mm - - -
1788191550 21.11° C 63% 1016.4 hPa 0 mm - - -
1788191137 21.11° C 62% 1016.6 hPa 0 mm - - -
1788190706 21.11° C 63% 1016.5 hPa 0 mm - - -
1788190299 21.11° C 65% 1016.5 hPa 0 mm - - -
1788189865 20.56° C 67% 1016.5 hPa 0 mm - - -
1788189443 20.56° C 69% 1016.5 hPa 0 mm - - -
1788189024 20° C 70% 1016 hPa 0 mm - - -
1788188601 20° C 70% 1016 hPa 0 mm - - -
1788188180 20° C 71% 1016 hPa 0 mm - - -
1788187759 20° C 72% 1016.6 hPa 0 mm - - -
1788187338 19.44° C 73% 1016.6 hPa 0 mm - - -
1788186917 18.89° C 73% 1016.5 hPa 0 mm - - -
1788186496 18.89° C 75% 1016.7 hPa 0 mm - - -
1788186076 18.33° C 74% 1016 hPa 0 mm - - -
1788185654 18.33° C 75% 1016 hPa 0 mm - - -
1788185233 17.78° C 77% 1015.9 hPa 0 mm - - -
1788184813 17.78° C 78% 1016.2 hPa 0 mm - - -
1788184391 17.22° C 79% 1015.8 hPa 0 mm - - -
1788183970 16.11° C 80% 1015.9 hPa 0 mm - - -
1788183128 15.56° C 79% 1016 hPa 0 mm - - -
1788182707 15.56° C 79% 1016 hPa 0 mm - - -
1788182286 15.56° C 79% 1015.9 hPa 0 mm - - -
1788181867 15.56° C 79% 1015.9 hPa 0 mm - - -
1788181444 15.56° C 79% 1015.8 hPa 0 mm - - -

* Rain latest hour (hover to see other rain measurements)
** Current wind speed in m/s (hover to see current wind gust speed)